Regional Weather Roundup
Issued by NWS Shreveport, LA

Home | Current Version | Previous Version | Text Only | Print | Product List | Glossary On
Versions: 1 2 3 4 5 6 7 8 9 10 11 12 13 14 15 16 17 18 19 20 21 22 23 24 25 26 27
000
ASUS44 KSHV 310610
RWRSHV

THE FOUR STATE AREA WEATHER ROUNDUP
NATIONAL WEATHER SERVICE SHREVEPORT LA
100 AM CDT SAT JUL 31 2021

NOTE:  "FAIR" INDICATES FEW OR NO CLOUDS BELOW 12000 FEET
WITH NO SIGNIFICANT WEATHER AND/OR OBSTRUCTIONS TO VISIBILITY.

!LAZ001-LAZ014-TXZ097-310700
SHREVEPORT...MONROE...TEXARKANA RADIOS

CITY           SKY/WX    TMP DP  RH WIND       PRES   REMARKS
SHREVEPORT     CLEAR     84  76  76 CALM      30.02F
MONROE         CLEAR     84  78  82 CALM      30.03F
NATCHITOCHES   CLEAR     79  78  97 CALM      30.03S
TEXARKANA      CLEAR     85  75  72 S3        30.03F
$$

!LAZ001-LAZ014-TXZ097-310700
OTHER LOCATIONS...

CITY           SKY/WX    TMP DP  RH WIND       PRES   REMARKS
DOWNTOWN SHV   CLEAR     85  77  77 CALM      30.03S
BOSSIER CITY   CLEAR     81  75  83 SE5       30.02S
RUSTON         NOT AVBL
LITTLE ROCK    CLEAR     81  76  84 CALM      30.02R
EL DORADO      CLEAR     78  77  96 CALM      30.03F
JACKSON        CLEAR     76  73  91 CALM      30.03F
NEW ORLEANS    PTCLDY    84  79  85 SW3       30.03F
HOUSTON        MOCLDY    81  74  79 CALM      30.04S
LUFKIN         CLEAR     81  78  91 CALM      30.05R
TYLER          CLEAR     80  74  81 S3        30.04S
DAL FT WORTH   PTCLDY    85  73  67 S7        30.02S
$$


!TXZ136-TXZ165-310700
TYLER...LUFKIN RADIOS

CITY           SKY/WX    TMP DP  RH WIND       PRES   REMARKS
TYLER          CLEAR     80  74  81 S3        30.04S
GILMER         CLEAR     78  76  94 CALM      30.04S
LONGVIEW       CLEAR     78  75  90 CALM      30.03S
LUFKIN         CLEAR     81  78  91 CALM      30.05R
$$

!TXZ136-TXZ165-310700
OTHER LOCATIONS...

CITY           SKY/WX    TMP DP  RH WIND       PRES   REMARKS
NACOGDOCHES    CLEAR     78  76  93 CALM      30.06R
BEAUMONT       CLEAR     79  78  97 CALM      30.04S
HOUSTON        MOCLDY    81  74  79 CALM      30.04S
COLLEGE STN    CLEAR     80  73  79 S5        30.05S
AUSTIN         PTCLDY    77  73  87 S5        30.05S
DAL FT WORTH   PTCLDY    85  73  67 S7        30.02S
TEXARKANA      CLEAR     85  75  72 S3        30.03F
SHREVEPORT     CLEAR     84  76  76 CALM      30.02F
FORT POLK      CLEAR     81  77  86 SW3       30.03F
LAKE CHARLES   CLEAR     81  79  94 CALM      30.04S
$$



USA.gov is the U.S. government's official web portal to all federal, state and local government web resources and services.